sat.trackr.live / text

‹ back to catalog

SAPPHIRE

NORAD 39088 · 2013-009C

PAYLOAD ACTIVE UNKNOWN

§ Identity

Operator
Country
CA
Launch date
2013-02-25
Launch site
SRILR
Launch vehicle
Mass (kg)
RCS (m²)
0.60

Purposes: military

External: N2YO · Heavens-Above · Gunter

§ Orbital elements

Epoch: 2026-09-15T22:19:12.361152Z

Period
100.33 min
Inclination
98.4314°
Eccentricity
0.0010837
Mean motion
14.35260219 rev/d
Perigee alt
766.5 km
Apogee alt
782.0 km
Semi-major
7,152.3 km
B*
3.3802e-5
RAAN
76.2641°
Arg perigee
344.9479°
Mean anomaly
15.1383°
Rev number
70,959

§ Raw data

SAPPHIRE1 39088U 13009C   26258.93000418  .00000054  00000+0  33802-4 0  99972 39088  98.4314  76.2641 0010837 344.9479  15.1383 14.35260219709598

JSON: /api/v1/satellites/39088 · /tle

For live sub-satellite position, see the globe view (requires WebGL).

§ Visibility from observer

Set your observer location to see the next 7 days of passes ≥ 10°. The values pass through the URL so the page stays shareable.

No JS? Fill the form by hand. The geolocation button needs JavaScript.